Total_Precipitation_Accumulation
1.60 1.71 1.55 1.39 1.23 1.50 1.77 1.78 1.61 1.73 1.75 1.82 1.79 1.76 1.74 1.42 1.25 1.20 1.27 1.50 1.48 1.43 1.51 1.58 1.53 1.42 1.37 1.23 1.08 0.93 0.79 0.74 0.67 0.60 0.53 0.45 0.37 0.29 0.25 0.16 0.10 0.05 0.04
1.48 1.53 1.46 1.35 1.28 1.45 1.64 1.66 1.62 1.82 1.91 1.89 1.59 1.49 1.44 1.46 1.36 1.18 1.32 1.48 1.53 1.40 1.45 1.65 1.72 1.69 1.69 1.56 1.36 1.19 1.00 0.85 0.70 0.54 0.49 0.48 0.39 0.30 0.33 0.36 0.39 0.14 0.04
1.16 1.27 1.29 1.25 1.27 1.33 1.37 1.34 1.36 1.55 1.53 1.43 1.28 1.22 1.25 1.26 1.29 1.28 1.19 1.25 1.38 1.43 1.36 1.49 1.60 1.63 1.74 1.75 1.64 1.44 1.21 0.98 0.76 0.54 0.43 0.41 0.38 0.27 0.25 0.32 0.37 0.20 0.08
0.87 0.96 0.94 0.97 1.01 1.05 1.06 1.04 1.06 1.16 1.25 1.34 1.34 1.20 1.29 1.31 1.25 1.36 1.37 1.26 1.37 1.33 1.52 1.62 1.60 1.54 1.69 1.86 1.91 1.77 1.46 1.12 0.88 0.68 0.51 0.40 0.36 0.29 0.23 0.23 0.24 0.21 0.13
0.77 0.82 0.81 0.82 0.77 0.78 0.80 0.76 0.84 0.96 1.05 1.11 1.05 1.10 1.06 1.07 1.05 1.05 1.21 1.09 1.14 1.28 1.44 1.53 1.58 1.52 1.72 1.99 2.24 2.34 2.06 1.50 1.09 0.90 0.80 0.67 0.53 0.39 0.31 0.30 0.25 0.19 0.16
0.69 0.66 0.63 0.59 0.53 0.55 0.61 0.66 0.75 0.83 0.85 0.91 0.83 0.88 0.84 0.78 0.80 0.84 0.82 0.85 0.94 0.92 1.12 1.31 1.45 1.23 1.50 1.85 2.08 2.32 2.40 2.12 1.62 1.23 1.08 0.96 0.81 0.57 0.36 0.29 0.29 0.25 0.20
0.59 0.53 0.45 0.45 0.40 0.40 0.43 0.45 0.53 0.61 0.64 0.71 0.81 0.80 0.70 0.65 0.64 0.63 0.61 0.62 0.66 0.79 0.99 1.16 1.23 1.22 1.10 1.15 1.21 1.49 1.94 2.26 2.11 1.66 1.34 1.16 1.07 0.81 0.49 0.35 0.30 0.29 0.25
0.46 0.42 0.41 0.39 0.36 0.37 0.36 0.39 0.45 0.49 0.52 0.57 0.66 0.68 0.63 0.61 0.60 0.49 0.55 0.55 0.58 0.76 0.87 0.87 0.97 1.09 0.92 1.06 0.82 0.94 1.37 1.75 2.12 2.08 1.71 1.34 1.16 0.96 0.72 0.54 0.40 0.33 0.30
0.31 0.33 0.35 0.37 0.36 0.32 0.32 0.34 0.35 0.38 0.40 0.42 0.50 0.58 0.59 0.57 0.52 0.46 0.46 0.48 0.56 0.65 0.68 0.77 0.74 0.75 0.83 0.91 0.89 0.82 1.06 1.20 1.66 2.12 2.06 1.68 1.33 1.08 0.93 0.82 0.67 0.47 0.38
0.22 0.22 0.25 0.30 0.31 0.32 0.32 0.25 0.26 0.32 0.34 0.31 0.34 0.42 0.41 0.46 0.52 0.51 0.45 0.47 0.54 0.54 0.54 0.58 0.59 0.62 0.67 0.75 0.78 0.67 0.63 0.79 1.21 1.74 2.03 1.95 1.65 1.28 1.13 1.14 1.29 1.17 0.80
0.24 0.20 0.19 0.23 0.28 0.34 0.39 0.35 0.33 0.31 0.30 0.27 0.28 0.35 0.36 0.31 0.37 0.46 0.47 0.45 0.46 0.39 0.38 0.39 0.40 0.48 0.52 0.61 0.71 0.64 0.53 0.63 0.81 1.13 1.43 1.65 1.68 1.58 1.43 1.43 1.76 1.94 1.73
0.33 0.30 0.28 0.31 0.35 0.34 0.35 0.37 0.40 0.39 0.37 0.34 0.27 0.29 0.43 0.40 0.30 0.36 0.38 0.42 0.41 0.29 0.30 0.35 0.37 0.41 0.48 0.58 0.59 0.53 0.61 0.69 0.70 0.75 0.90 1.08 1.27 1.39 1.48 1.60 1.80 2.08 2.15
0.30 0.31 0.30 0.36 0.39 0.38 0.35 0.33 0.34 0.39 0.46 0.46 0.36 0.28 0.31 0.42 0.37 0.31 0.31 0.31 0.34 0.33 0.37 0.39 0.43 0.50 0.59 0.80 0.71 0.63 0.62 0.68 0.68 0.68 0.68 0.71 0.80 0.91 1.04 1.24 1.49 1.75 1.99
0.33 0.30 0.27 0.27 0.29 0.32 0.33 0.30 0.26 0.28 0.35 0.44 0.46 0.46 0.42 0.35 0.42 0.37 0.31 0.33 0.38 0.44 0.51 0.51 0.60 0.69 0.81 0.90 0.90 0.73 0.56 0.48 0.43 0.44 0.44 0.45 0.50 0.57 0.67 0.77 0.91 1.10 1.27
0.30 0.27 0.24 0.22 0.21 0.24 0.27 0.28 0.27 0.27 0.28 0.29 0.36 0.49 0.51 0.41 0.38 0.39 0.38 0.43 0.57 0.55 0.57 0.69 0.84 0.90 0.84 0.85 0.77 0.65 0.49 0.43 0.38 0.34 0.33 0.34 0.36 0.38 0.43 0.48 0.53 0.64 0.75
0.26 0.24 0.20 0.18 0.16 0.16 0.19 0.24 0.26 0.29 0.34 0.36 0.38 0.43 0.54 0.58 0.51 0.48 0.48 0.53 0.66 0.66 0.67 0.72 0.85 0.88 0.77 0.62 0.57 0.58 0.49 0.48 0.42 0.34 0.29 0.29 0.31 0.32 0.31 0.34 0.34 0.34 0.38
0.26 0.24 0.22 0.19 0.16 0.15 0.18 0.22 0.24 0.29 0.35 0.44 0.52 0.52 0.51 0.63 0.71 0.65 0.63 0.64 0.68 0.74 0.73 0.70 0.84 0.87 0.76 0.58 0.51 0.52 0.53 0.54 0.45 0.40 0.33 0.29 0.29 0.30 0.30 0.31 0.32 0.31 0.29
0.32 0.30 0.27 0.25 0.18 0.15 0.18 0.20 0.20 0.24 0.34 0.43 0.58 0.74 0.75 0.70 0.69 0.66 0.66 0.67 0.72 0.84 0.85 0.76 0.82 0.90 0.86 0.76 0.66 0.55 0.46 0.47 0.50 0.51 0.43 0.36 0.32 0.31 0.29 0.29 0.29 0.29 0.30
0.33 0.35 0.34 0.32 0.27 0.24 0.23 0.21 0.20 0.23 0.28 0.33 0.45 0.69 0.88 1.01 0.93 0.75 0.66 0.63 0.71 0.85 0.96 0.89 0.88 1.03 1.04 0.95 0.80 0.62 0.49 0.46 0.43 0.46 0.48 0.42 0.37 0.34 0.32 0.29 0.28 0.27 0.25
0.33 0.37 0.40 0.41 0.37 0.33 0.30 0.27 0.29 0.30 0.29 0.30 0.36 0.46 0.58 0.79 0.95 1.01 0.88 0.76 0.75 0.82 0.92 0.94 1.04 1.27 1.31 1.19 0.93 0.74 0.64 0.55 0.48 0.40 0.41 0.42 0.39 0.34 0.32 0.31 0.28 0.25 0.24
0.43 0.50 0.54 0.53 0.49 0.43 0.34 0.34 0.40 0.35 0.38 0.36 0.36 0.38 0.38 0.45 0.58 0.75 0.86 0.94 0.92 0.85 0.90 0.97 1.20 1.62 1.65 1.41 1.03 0.84 0.76 0.71 0.62 0.50 0.44 0.36 0.34 0.31 0.30 0.31 0.32 0.31 0.26
0.73 0.76 0.75 0.72 0.65 0.50 0.43 0.39 0.38 0.38 0.43 0.46 0.45 0.43 0.39 0.35 0.37 0.47 0.59 0.73 0.88 0.92 0.93 1.00 1.19 1.50 1.66 1.55 1.30 1.08 0.85 0.71 0.64 0.59 0.55 0.48 0.41 0.37 0.31 0.27 0.32 0.32 0.30
0.86 0.87 0.85 0.85 0.80 0.76 0.63 0.48 0.40 0.40 0.43 0.48 0.54 0.58 0.43 0.30 0.37 0.42 0.49 0.53 0.60 0.70 0.82 0.91 1.05 1.25 1.53 1.67 1.50 1.13 0.96 0.87 0.69 0.62 0.62 0.57 0.53 0.47 0.39 0.35 0.38 0.31 0.30
0.76 0.74 0.74 0.75 0.81 0.77 0.69 0.53 0.43 0.42 0.46 0.49 0.54 0.57 0.54 0.43 0.42 0.46 0.49 0.47 0.46 0.46 0.53 0.65 0.77 1.00 1.28 1.60 1.75 1.51 1.30 1.14 0.93 0.79 0.66 0.61 0.60 0.54 0.45 0.40 0.44 0.38 0.32
0.65 0.61 0.57 0.60 0.68 0.73 0.67 0.55 0.51 0.48 0.49 0.49 0.50 0.53 0.56 0.51 0.43 0.35 0.40 0.41 0.40 0.41 0.40 0.45 0.55 0.73 0.98 1.29 1.64 1.76 1.48 1.14 0.98 0.81 0.69 0.60 0.55 0.59 0.57 0.46 0.45 0.47 0.40
0.72 0.66 0.60 0.61 0.63 0.72 0.71 0.57 0.54 0.51 0.54 0.56 0.66 0.69 0.63 0.54 0.45 0.33 0.34 0.38 0.37 0.34 0.40 0.41 0.43 0.50 0.65 0.90 1.25 1.44 1.44 1.15 0.91 0.80 0.59 0.53 0.51 0.53 0.58 0.51 0.40 0.39 0.40